Location: La Tine
(46.4708°N, 7.0525°E)
Time: 06:51:12
(UTC+00:00)

Meteor 1-24 Rocket - Pass Details

Date: 18 September 2020
Orbit: 790 x 927 km, 81.2° (Epoch: 23 October)

Event Time Altitude Azimuth Distance (km) Brightness Sun altitude
Rises 20:48:57 0° 343° (NNW) 3,350 7.6 -31.0°
Reaches altitude 10° 20:51:24 10° 338° (NNW) 2,431 6.8 -31.4°
Enters shadow 20:56:35 47° 268° (W) 1,107 4.4 -32.0°
